Regional Weather Roundup
Issued by NWS Charleston, SC

Current Version | Previous Version | Graphics & Text | Print | Product List | Glossary On
Versions: 1 2 3 4 5 6 7 8 9 10 11 12 13 14 15 16 17 18 19 20 21 22 23 24 25 26 27 28 29 30 31 32 33 34 35 36 37 38 39 40 41 42 43 44 45 46 47 48 49 50
000
ASUS42 KCHS 200525
RWRCHS

REGIONAL WEATHER ROUNDUP
NATIONAL WEATHER SERVICE CHARLESTON SC
100 AM EDT WED AUG 20 2014

NOTE: "FAIR" INDICATES FEW OR NO CLOUDS BELOW 12,000 FEET WITH NO
SIGNIFICANT WEATHER AND/OR OBSTRUCTIONS TO VISIBILITY.

NOT ALL STATIONS ARE QUALITY CONTROLLED BY THE NATIONAL
WEATHER SERVICE. USE DATA WITH CAUTION...ESPECIALLY
DEWPOINT OBSERVATIONS.

SCZ027-030-031-034>040-042>050-200600-
...SOUTH CAROLINA...

CITY           SKY/WX    TMP DP  RH WIND       PRES   REMARKS
N CHARLESTON   CLEAR     79  74  84 SW6       29.91F
WATERFRONT PRK   N/A     79 N/A N/A W6          N/A
FORT JOHNSON   NOT AVBL
MOUNT PLEASANT FAIR      79  75  89 SW6       29.91S
JOHNS ISLAND   CLEAR     79  75  89 CALM      29.92S
PINOPOLIS        N/A     81  75  83 SW6       29.82S
MONCKS CORNER    N/A     77  75  94 CALM      29.91S
SUMMERVILLE    FAIR      75  75 100 CALM      29.92S
BEAUFORT MCAS  CLEAR     77  73  87 NW8       29.93R
BEAUFORT ARPT  FAIR      77  73  88 W8        29.93S
HILTON HEAD IS CLEAR     77  72  83 SW8       29.95S
GEORGETOWN     NOT AVBL
WALTERBORO     CLEAR     77 N/A N/A W5        29.93S
ORANGEBURG     PTCLDY    75  71  87 SW6       29.92S
BARNWELL       FAIR      73  73 100 SW3       29.94S
AIKEN          FAIR      73  73 100 SW6       29.96S
MANNING        FAIR      77  77 100 SW5       29.91R
KINGSTREE      NOT AVBL
COLUMBIA       MOCLDY    77  72  84 W6        29.90R
SUMTER         MOCLDY    77  74  90 SW6       29.88S
FLORENCE       PTCLDY    76  73  91 CALM      29.90S
MYRTLE BEACH   PTCLDY    79  73  83 SW5       29.89S
N MYRTLE BEACH CLEAR     77  74  90 W5        29.89R

$$

GAZ063-065-086>088-099>101-113>116-118-119-134-136>141-150-200600-
...GEORGIA...

CITY           SKY/WX    TMP DP  RH WIND       PRES   REMARKS
SAVANNAH ARPT  CLEAR     75  69  81 SW8       29.96R
HUNTER AAF     CLEAR     75  70  85 SW9       29.94R
FORT STEWART   CLEAR     74  69  87 SW10      29.96R
STATESBORO     NOT AVBL
SYLVANIA       PTCLDY    74  74  98 CALM      29.96S
CLAXTON        FAIR      73  73 100 W3        29.97R
THOMSON        PTCLDY    76  76  98 CALM      29.98S
AUGUSTA-BUSH   PTCLDY    75  71  87 VRB3      29.92S
AUGUSTA-DANIEL PTCLDY    77  72  84 VRB3      29.94S
SWAINSBORO     FAIR      75  75 100 CALM      29.97S
VIDALIA          N/A     73  72  94 SW7       29.98S
ALMA           PTCLDY    73  70  90 NW3       29.99S
WAYCROSS       CLEAR     78  74  88 CALM      29.99F
JESUP            N/A     75  72  88 W5        29.99S
BRUNSWICK      NOT AVBL
SAINT SIMONS   CLEAR     77  70  79 W5        29.98R

$$

SCZ027-028-034-036>038-045-046-048>050-GAZ119-141-200600-
...LAKE AND SUPPLEMENTAL COASTAL OBSERVATIONS...

STATION/POSITION TIME  TEMP    WIND        PRES    WAVE   SWELL
                       AIR SEA DIR/SP/G            HT/PER HT/PER/DIR
                 (UTC) (F)     (DEG/KT/KT) (MB)    (FT/S) (FT/S/D)
UPR LAKE MARION  NOT AVBL
WINYAH BAY       0500   78     250/  4     1012.0S
LAKE MURRAY      0400   78      CALM  /  2 1011.9R
ACE BASIN NERRS  0500   78     270/  2     1013.0S
FORT PULASKI     0500   77     260/ 11/ 16 1014.2S
SAPELO ISLAND    0500   78     250/ 11     1015.0S

$$

ANZ835-935-AMZ111-154-330-350-352-354-374-450-454-472-200600-
...C-MAN AND BUOY OBSERVATIONS...

STATION/POSITION TIME  TEMP    WIND        PRES    WAVE   SWELL
                       AIR SEA DIR/SP/G            HT/PER HT/PER/DIR
                 (UTC) (F)     (DEG/KT/KT) (MB)    (FT/S) (FT/S/D)
FOLLY BEACH CMAN 0500   78     260/  5/  7 1013.4R
BUOY 41004       0500   83 83  240/ 12/ 16 1012.2F   4/ 5   2/ 8
BUOY 41008       0500   82 85  260/ 17/ 21 1014.3R   3/ 4
5E ST. MARYS GA  0500      81                N/A     1/ 8
FRYING PAN BUOY  NOT AVBL
BUOY 41025       0500   79     290/  6/  8 1010.5F   3/ 6   2/180/ 6
CAPE LOOKOUT NC  0500   80     320/  5/  6 1010.6F
BUOY 41002       0404   81 81  240/ 19/ 23 1014.3    5/ 7
BUOY 41010       0500   84 86  180/ 14/ 16 1016.3F   2/ 8   2/120/ 8
BUOY 41012       NOT AVBL
ST AUGUSTINE FL  0500   80     270/  6/  9 1016.8R
CAPERS NEARSHORE 0400   83     260/ 12/ 16   N/A
FRIPP NEARSHORE  NOT AVBL


$$



USA.gov is the U.S. government's official web portal to all federal, state and local government web resources and services.